Temperature
6 6 6 6 5 5 5 5 5 5 5 5 5 5 5 5 5 5 5 5 5 5 5 5 5 5 5 5 5 5 5 5 5 5 5 5 4 4 4 4 4 4 4
5 5 5 5 5 5 5 5 5 5 5 5 5 5 5 5 5 5 5 5 5 5 5 5 5 5 5 5 5 5 5 5 5 4 4 4 4 4 4 4 4 3 3
5 5 5 5 5 5 5 5 4 5 5 5 5 5 5 5 5 5 5 5 5 5 5 5 5 5 5 5 4 4 4 4 4 4 4 4 3 3 3 3 3 3 3
4 4 4 4 4 4 4 4 4 4 4 4 4 4 4 4 4 4 4 4 4 4 4 4 4 4 4 4 4 4 4 4 4 3 3 3 3 3 3 2 2 3 3
4 4 4 4 4 4 3 4 4 4 4 4 4 4 4 4 4 4 4 4 4 4 4 4 4 4 4 4 4 4 3 3 3 3 3 2 2 2 2 2 2 2 2
3 3 3 3 3 3 3 3 3 3 3 3 3 3 3 3 3 3 3 3 3 3 3 3 3 3 3 3 3 3 3 3 3 2 2 2 2 2 2 2 1 1 1
3 3 3 3 3 3 3 3 2 3 3 3 3 3 2 3 3 3 3 3 3 3 3 2 2 3 3 3 2 2 2 2 2 2 2 2 2 2 1 1 1 1 1
3 3 3 2 2 2 2 2 2 2 2 2 2 2 2 2 2 2 2 2 2 2 2 2 2 2 2 2 2 2 2 2 2 2 1 1 1 1 1 1 0 0 -0
2 2 2 2 2 2 2 1 1 1 1 1 1 1 1 2 2 1 1 1 1 1 1 1 1 1 1 1 1 1 1 1 1 1 1 0 0 0 0 0 -0 -1 -1
1 1 1 1 1 1 1 1 1 1 1 1 1 1 1 1 1 1 1 1 1 1 1 1 0 1 1 0 1 1 1 1 1 0 0 0 -0 -0 -0 -0 -1 -1 -2
1 1 0 0 0 0 0 0 0 0 0 0 0 0 0 0 0 0 0 0 0 0 0 0 0 0 0 -0 -0 -0 0 -0 -0 -0 -0 -1 -1 -1 -1 -1 -1 -2 -2
-0 -0 -0 -0 -0 -0 -0 -0 -0 -0 -0 -0 -0 -0 -0 -0 -0 -0 -0 -0 -0 -0 -0 -0 -0 -0 -1 -1 -1 -1 -1 -1 -1 -1 -1 -1 -1 -1 -2 -2 -2 -2 -2
-1 -1 -1 -1 -1 -1 -1 -1 -1 -1 -1 -1 -1 -1 -1 -1 -1 -1 -1 -1 -1 -1 -1 -1 -1 -1 -1 -1 -1 -1 -2 -2 -2 -2 -2 -2 -2 -2 -2 -2 -3 -3 -3
-2 -2 -2 -2 -2 -2 -2 -2 -2 -2 -2 -2 -2 -2 -2 -2 -2 -2 -2 -2 -2 -2 -2 -2 -2 -2 -2 -2 -2 -2 -2 -2 -2 -3 -3 -3 -3 -3 -3 -3 -3 -3 -4
-2 -2 -2 -2 -2 -2 -2 -2 -3 -2 -2 -2 -2 -2 -2 -2 -2 -2 -2 -2 -2 -2 -2 -2 -2 -2 -3 -3 -3 -3 -3 -3 -3 -3 -3 -3 -3 -4 -4 -4 -4 -4 -4
-3 -3 -3 -3 -3 -3 -3 -3 -3 -3 -3 -3 -3 -3 -3 -3 -3 -3 -2 -2 -3 -3 -3 -3 -3 -3 -3 -3 -3 -3 -4 -4 -4 -4 -4 -4 -4 -4 -4 -4 -5 -5 -5
-4 -4 -3 -4 -4 -4 -4 -4 -4 -3 -3 -3 -3 -3 -3 -3 -3 -3 -3 -3 -3 -3 -3 -4 -4 -4 -4 -4 -4 -4 -4 -4 -4 -4 -4 -4 -5 -5 -5 -5 -5 -5 -6
-4 -4 -4 -4 -4 -4 -4 -4 -4 -4 -4 -4 -4 -4 -4 -4 -4 -4 -4 -4 -4 -4 -4 -4 -4 -4 -4 -4 -4 -5 -5 -5 -5 -5 -5 -5 -5 -5 -5 -6 -6 -6 -6
-5 -5 -5 -5 -5 -5 -5 -5 -5 -5 -5 -5 -5 -5 -4 -4 -4 -4 -4 -4 -4 -4 -4 -4 -5 -5 -5 -5 -5 -5 -5 -5 -5 -5 -6 -6 -6 -6 -6 -6 -6 -6 -7
-5 -5 -5 -5 -5 -5 -5 -5 -5 -5 -5 -5 -5 -5 -5 -5 -5 -5 -5 -5 -5 -5 -5 -5 -5 -5 -5 -5 -5 -6 -6 -6 -6 -6 -6 -6 -6 -6 -6 -7 -7 -7 -7
-6 -6 -6 -6 -6 -6 -6 -6 -6 -6 -6 -6 -6 -6 -6 -6 -6 -5 -5 -5 -5 -5 -5 -5 -5 -5 -6 -6 -6 -6 -6 -6 -6 -6 -7 -7 -7 -7 -7 -7 -7 -7 -7
-6 -6 -7 -7 -7 -7 -7 -7 -7 -7 -6 -6 -6 -6 -6 -6 -6 -6 -6 -6 -6 -6 -6 -6 -6 -6 -6 -6 -6 -6 -7 -7 -7 -7 -7 -7 -7 -7 -7 -7 -7 -7 -8
-7 -7 -7 -7 -7 -7 -7 -7 -7 -7 -7 -7 -7 -7 -7 -7 -6 -6 -6 -6 -6 -6 -6 -6 -6 -6 -6 -7 -7 -7 -7 -7 -7 -7 -7 -7 -7 -7 -8 -8 -8 -8 -8
-8 -8 -8 -8 -8 -8 -8 -7 -7 -7 -7 -7 -7 -7 -7 -7 -7 -7 -7 -7 -7 -7 -7 -7 -7 -7 -7 -7 -7 -7 -7 -7 -7 -8 -8 -8 -8 -8 -8 -8 -8 -8 -8
-8 -8 -8 -8 -8 -8 -8 -8 -8 -8 -8 -8 -8 -8 -8 -8 -8 -8 -7 -7 -7 -7 -7 -7 -7 -7 -7 -7 -7 -7 -8 -8 -8 -8 -8 -8 -8 -8 -8 -8 -8 -9 -9
-9 -9 -9 -9 -9 -8 -8 -8 -8 -8 -8 -8 -8 -8 -8 -8 -8 -8 -8 -8 -8 -8 -8 -8 -8 -8 -8 -8 -8 -8 -8 -8 -8 -8 -8 -8 -9 -9 -9 -9 -9 -9 -9
Wind_Speed
1 2 2 2 2 3 3 3 4 3 4 5 5 5 6 6 7 7 7 7 8 8 7 7 7 6 5 5 4 4 4 4 5 3 2 4 6 6 5 6 6 7 7
1 2 2 2 2 2 2 3 3 3 4 4 4 5 5 5 6 7 7 7 8 8 7 7 7 6 7 5 5 5 5 5 5 5 3 4 6 6 5 6 6 6 6
1 1 1 1 2 2 2 3 3 3 3 3 4 4 4 5 5 6 7 7 7 8 7 8 8 7 7 6 6 6 5 4 4 5 4 3 3 4 5 5 6 6 6
1 1 1 1 2 2 2 2 2 2 3 3 3 4 4 4 4 5 5 6 6 6 6 7 7 8 8 8 6 7 6 5 5 5 5 4 4 4 4 5 5 5 5
1 1 1 2 2 1 1 1 1 2 2 2 2 2 3 3 3 4 4 5 5 5 5 5 6 6 7 7 6 7 7 6 5 5 5 5 5 5 5 5 5 5 5
2 2 2 2 1 1 1 1 1 1 2 2 2 3 3 3 3 4 4 4 5 5 5 5 5 6 7 8 9 9 9 9 8 7 7 7 8 7 6 5 5 4 4
2 2 2 2 2 2 1 1 2 2 1 2 2 2 3 3 3 5 5 4 5 5 5 5 4 5 7 6 8 8 9 10 10 9 9 9 8 7 7 7 7 6 6
3 2 2 2 2 2 1 2 2 2 1 2 2 2 2 2 3 4 5 4 4 4 5 6 6 6 6 7 6 7 7 8 9 8 8 8 7 7 7 7 7 6 5
3 3 3 2 2 2 2 2 2 2 2 2 2 3 3 3 3 4 4 3 3 4 5 5 6 6 7 8 7 7 6 6 6 7 7 6 7 8 7 5 5 5 5
3 3 3 2 2 2 2 2 2 2 2 2 2 2 3 3 3 5 5 3 4 4 4 4 5 6 7 8 7 7 7 6 5 5 5 6 7 8 10 8 7 6 4
4 3 3 2 2 2 2 2 2 2 2 2 2 2 3 3 3 5 5 3 4 4 4 4 4 6 8 8 8 7 7 6 5 5 5 5 5 5 6 7 7 6 6
3 3 3 3 2 2 2 2 2 2 2 2 2 2 2 2 2 3 4 4 3 3 4 4 4 5 7 8 7 6 7 6 4 4 5 5 5 5 5 5 6 6 7
3 2 3 3 2 2 2 2 2 1 1 1 1 1 2 2 1 2 3 3 3 3 3 3 4 5 6 6 6 6 6 5 4 5 5 5 4 4 3 3 3 4 5
3 3 3 2 2 2 2 2 2 2 1 1 2 2 2 2 2 1 1 2 2 2 1 2 3 3 2 2 3 4 4 4 4 4 4 3 3 3 3 3 3 3 4
3 3 3 3 2 2 2 2 2 2 2 2 2 2 2 2 3 3 3 2 2 1 1 1 1 1 1 1 1 2 2 3 3 3 3 3 3 3 3 3 3 4 4
3 3 3 3 2 2 2 2 3 3 3 3 3 3 2 2 3 3 3 2 2 1 1 1 1 2 2 2 2 2 2 3 3 3 4 4 4 4 4 3 3 4 5
3 3 3 3 3 2 2 2 2 3 4 3 3 3 3 3 3 2 2 2 1 1 1 1 2 2 2 2 2 2 3 3 2 3 3 4 4 4 4 4 4 5 5
4 3 3 3 3 2 2 2 2 2 2 3 4 4 4 3 3 2 1 1 1 1 1 2 2 2 2 2 2 3 2 2 2 3 3 3 4 4 4 5 5 5 5
4 3 3 3 3 3 3 2 2 2 2 2 3 3 4 3 2 2 1 1 1 1 1 1 2 2 2 2 3 3 3 3 3 3 3 3 4 4 4 5 5 6 6
4 5 5 3 3 3 3 2 2 2 2 2 2 3 3 3 2 2 2 2 2 2 2 2 2 2 2 2 2 2 2 3 3 3 3 3 3 4 5 5 5 5 5
4 4 5 4 3 3 3 3 3 3 3 3 3 3 4 3 2 2 2 2 2 2 2 2 2 2 2 2 2 3 3 3 3 3 3 3 3 3 4 4 5 5 5
4 4 4 3 3 3 3 3 3 3 3 4 3 3 4 3 2 2 3 3 3 3 2 2 2 2 2 2 3 3 3 3 3 3 3 3 3 4 4 4 4 4 4
4 4 4 3 3 4 4 3 3 3 3 4 4 3 3 3 3 3 3 3 3 3 3 3 3 2 3 3 4 4 4 4 4 3 3 4 4 4 4 4 5 5 5
4 4 4 4 4 4 4 4 4 4 4 4 4 4 3 3 3 4 4 3 3 3 3 3 3 4 4 4 4 4 5 5 5 5 5 5 5 4 4 4 5 5 5
4 4 4 4 4 4 4 4 4 4 4 4 4 4 4 4 4 4 4 4 4 4 4 4 4 4 5 5 5 6 6 7 7 6 6 5 5 5 5 5 5 5 5
4 4 4 4 4 4 4 4 4 4 4 4 4 4 4 4 4 4 4 4 4 4 4 4 5 6 6 6 7 7 8 8 8 8 7 5 5 5 5 5 6 6 6
Wind_Direction
234 229 234 233 232 233 229 230 230 226 219 215 211 210 209 208 208 210 213 209 214 215 213 214 216 213 210 210 210 213 218 219 225 229 215 198 200 202 200 211 218 223 224
255 232 236 238 225 229 241 240 231 225 223 220 214 209 209 211 211 212 214 212 213 214 213 210 212 207 210 208 207 210 212 212 214 219 219 211 210 206 208 214 218 224 230
270 250 242 241 231 230 240 245 236 226 224 222 218 216 215 214 214 217 216 215 217 218 214 213 210 205 209 209 207 208 209 211 213 212 218 221 219 210 214 222 225 226 232
264 246 246 253 249 248 247 242 240 232 223 221 218 216 216 216 216 216 215 214 215 217 216 216 214 211 213 208 206 208 204 203 204 205 210 214 215 209 213 220 226 225 231
276 257 256 261 256 253 253 250 241 232 223 214 210 209 210 213 217 213 213 214 210 210 213 217 219 216 216 210 206 206 202 204 204 207 213 216 216 208 215 216 226 231 236
292 282 283 275 258 257 264 257 242 235 225 210 206 208 214 218 199 201 210 211 211 212 214 216 216 213 213 211 214 214 210 209 208 213 219 220 226 222 217 215 220 233 240
294 293 291 278 272 269 266 259 250 234 223 226 226 221 227 224 197 201 210 212 212 215 216 216 218 218 215 218 217 215 222 225 224 224 226 230 230 225 216 219 225 234 245
308 304 306 299 292 291 279 272 271 258 242 241 238 233 236 236 203 207 212 219 219 219 222 222 222 222 220 216 217 221 227 229 228 230 236 238 236 229 223 224 230 241 257
329 323 316 299 286 283 275 270 274 267 261 256 248 239 238 239 212 213 216 223 225 227 230 230 227 226 215 207 212 219 226 233 232 231 239 241 234 227 222 213 211 221 246
323 317 313 304 285 273 267 271 281 266 261 260 261 259 252 255 229 218 221 222 227 231 233 233 229 228 216 208 216 219 225 231 226 224 226 230 230 225 221 221 216 221 238
323 320 317 313 305 292 281 276 268 264 257 257 264 270 263 260 231 222 225 226 226 229 233 235 232 221 222 220 226 231 230 229 228 226 228 229 228 226 227 224 223 223 229
331 330 329 327 327 314 300 292 278 262 255 261 265 277 282 270 251 231 231 241 246 234 237 238 232 221 229 231 233 233 227 226 226 221 224 227 228 230 228 223 227 233 239
343 338 336 337 335 325 311 301 297 283 273 278 271 271 290 297 282 249 241 246 256 253 248 237 228 226 233 235 227 222 220 222 218 222 227 232 233 233 226 224 227 235 246
346 342 340 340 340 339 338 323 307 294 282 276 268 271 287 290 287 279 268 259 246 253 244 214 213 209 211 210 213 220 226 227 229 232 236 240 235 225 225 226 230 227 240
350 347 344 342 336 343 349 343 322 315 300 281 270 268 267 279 295 305 296 281 272 262 266 269 250 213 210 212 223 234 231 226 231 234 234 235 230 229 233 228 230 232 239
350 348 344 338 335 336 344 356 13 347 344 327 314 296 298 296 301 305 311 313 300 246 267 229 223 227 227 230 235 239 239 240 236 232 232 232 232 232 234 231 229 233 240
341 336 335 334 332 332 333 334 342 7 19 10 357 348 338 328 322 321 326 315 257 230 231 215 231 236 237 239 243 244 250 249 244 238 236 232 230 229 231 233 233 236 240
339 336 332 331 330 329 330 331 330 332 341 352 4 5 357 349 336 333 337 334 264 266 237 224 236 242 240 240 245 250 247 243 239 238 236 234 230 229 232 236 236 238 243
340 335 336 334 335 336 337 338 338 335 330 334 340 348 356 352 351 0 346 302 266 274 269 256 250 243 245 246 248 249 243 243 246 245 242 237 233 233 236 238 240 240 244
341 347 343 336 338 340 340 339 338 333 326 323 322 326 334 336 329 330 333 319 294 281 276 268 267 260 254 251 250 250 253 251 248 248 249 245 241 240 241 241 241 244 245
336 338 340 335 340 338 334 333 329 324 319 315 312 314 316 309 299 299 298 295 290 283 280 274 265 257 255 254 253 253 254 254 250 253 256 255 251 248 245 243 244 244 246
334 334 335 336 335 332 329 324 320 316 314 312 313 314 314 310 300 295 294 295 296 294 291 281 272 266 256 250 248 249 251 256 256 253 255 257 256 253 248 246 246 247 246
335 335 334 333 330 327 328 326 320 313 312 312 312 313 312 307 304 300 297 296 295 296 291 284 279 275 266 255 249 248 252 255 258 257 256 254 253 252 248 246 246 249 247
334 333 329 326 326 325 324 323 320 315 313 312 311 309 306 304 302 300 299 295 292 292 285 278 274 271 269 264 259 256 255 258 257 249 249 254 254 253 249 247 248 248 249
332 329 326 323 320 318 318 316 315 314 311 310 308 304 303 301 298 297 297 294 290 287 286 281 272 267 264 262 262 261 262 264 263 256 250 250 252 248 246 248 248 250 249
327 323 318 315 313 311 309 307 307 307 304 304 302 299 298 296 295 294 294 292 290 287 285 278 273 272 272 267 264 263 265 268 268 264 256 246 246 247 245 246 248 246 248
Height
1469 1469 1470 1470 1470 1470 1470 1471 1471 1472 1473 1474 1475 1476 1477 1478 1480 1481 1483 1484 1486 1487 1489 1491 1492 1494 1495 1496 1498 1499 1501 1502 1502 1502 1503 1505 1506 1507 1508 1509 1510 1511 1512
1467 1467 1467 1467 1467 1467 1467 1468 1468 1469 1470 1470 1471 1472 1473 1474 1476 1477 1478 1480 1481 1483 1485 1486 1488 1489 1490 1492 1493 1495 1496 1497 1498 1498 1499 1500 1501 1502 1503 1504 1505 1506 1507
1465 1465 1465 1465 1465 1465 1465 1465 1465 1466 1466 1467 1468 1468 1470 1471 1472 1473 1474 1476 1477 1479 1480 1481 1483 1484 1486 1487 1489 1490 1491 1492 1493 1494 1494 1495 1496 1498 1499 1500 1500 1501 1502
1463 1463 1463 1462 1462 1462 1462 1462 1462 1463 1463 1464 1464 1465 1466 1467 1468 1469 1470 1471 1473 1474 1475 1477 1478 1480 1481 1483 1484 1485 1486 1487 1488 1489 1490 1491 1492 1493 1494 1495 1496 1496 1497
1461 1460 1460 1460 1460 1460 1459 1459 1459 1460 1460 1460 1461 1461 1462 1463 1464 1465 1466 1467 1468 1469 1471 1472 1474 1475 1477 1478 1479 1480 1482 1483 1483 1484 1485 1486 1487 1488 1489 1490 1491 1491 1491
1459 1458 1458 1457 1457 1457 1457 1456 1456 1456 1457 1457 1457 1458 1458 1459 1460 1461 1462 1463 1464 1465 1466 1467 1469 1470 1472 1473 1475 1476 1477 1478 1479 1480 1480 1481 1482 1483 1484 1485 1486 1486 1486
1457 1456 1455 1454 1454 1454 1454 1453 1453 1453 1453 1453 1454 1455 1455 1456 1457 1458 1459 1459 1460 1461 1462 1463 1464 1465 1467 1468 1469 1470 1471 1472 1474 1475 1475 1476 1477 1478 1479 1479 1480 1480 1480
1455 1454 1453 1452 1451 1451 1451 1450 1450 1450 1450 1450 1451 1451 1452 1452 1453 1454 1455 1455 1456 1456 1458 1459 1460 1461 1462 1463 1464 1465 1465 1467 1468 1470 1470 1471 1472 1473 1474 1474 1475 1475 1475
1452 1451 1450 1449 1449 1448 1448 1448 1448 1447 1447 1447 1448 1448 1448 1449 1449 1450 1451 1451 1452 1452 1453 1454 1455 1456 1457 1459 1460 1460 1461 1462 1463 1464 1464 1465 1466 1467 1468 1469 1469 1469 1468
1449 1448 1447 1447 1446 1446 1445 1445 1445 1445 1445 1445 1445 1445 1445 1445 1446 1446 1447 1447 1448 1448 1449 1450 1451 1452 1453 1453 1455 1455 1455 1456 1457 1458 1459 1459 1460 1461 1462 1462 1462 1463 1462
1447 1446 1445 1444 1444 1443 1443 1442 1442 1442 1442 1442 1442 1442 1442 1442 1442 1443 1443 1443 1444 1444 1444 1445 1446 1447 1447 1448 1450 1450 1451 1452 1452 1452 1453 1453 1454 1455 1456 1456 1456 1457 1457
1445 1443 1443 1442 1441 1441 1440 1439 1439 1439 1439 1438 1438 1438 1439 1439 1439 1439 1440 1440 1440 1440 1440 1441 1441 1442 1443 1443 1444 1445 1446 1446 1447 1447 1447 1448 1449 1449 1450 1450 1451 1451 1451
1443 1441 1441 1440 1439 1438 1438 1437 1436 1436 1436 1435 1435 1435 1435 1436 1436 1436 1436 1436 1437 1437 1437 1437 1437 1437 1438 1438 1439 1440 1441 1441 1442 1442 1442 1442 1443 1444 1444 1444 1445 1445 1445
1441 1440 1439 1438 1437 1436 1435 1435 1434 1434 1433 1433 1433 1432 1432 1432 1432 1432 1432 1433 1433 1433 1433 1433 1433 1433 1433 1434 1434 1435 1435 1436 1437 1437 1437 1438 1438 1438 1438 1439 1439 1439 1439
1440 1438 1437 1436 1435 1434 1433 1433 1432 1431 1431 1431 1430 1430 1430 1429 1430 1430 1429 1429 1429 1429 1429 1429 1429 1429 1429 1430 1430 1431 1431 1432 1432 1432 1432 1433 1433 1433 1433 1434 1434 1434 1434
1438 1437 1436 1434 1433 1432 1432 1431 1430 1429 1429 1429 1428 1428 1428 1428 1427 1427 1427 1427 1427 1427 1427 1426 1426 1426 1426 1427 1427 1427 1427 1427 1427 1428 1428 1428 1428 1428 1428 1429 1429 1429 1429
1437 1436 1435 1434 1432 1431 1430 1429 1428 1427 1427 1427 1426 1426 1425 1425 1425 1424 1424 1424 1424 1424 1424 1423 1423 1424 1424 1424 1424 1423 1423 1423 1423 1423 1423 1423 1423 1424 1424 1424 1424 1424 1424
1436 1435 1434 1432 1431 1430 1429 1428 1427 1426 1425 1424 1424 1424 1423 1423 1423 1422 1422 1421 1421 1421 1421 1421 1421 1421 1421 1421 1421 1420 1420 1420 1419 1419 1419 1419 1419 1419 1419 1419 1419 1419 1419
1434 1433 1432 1431 1430 1429 1428 1426 1426 1425 1424 1423 1423 1422 1422 1421 1421 1421 1420 1420 1419 1419 1419 1419 1419 1418 1418 1418 1417 1417 1416 1416 1416 1415 1415 1414 1414 1415 1414 1415 1415 1414 1414
1433 1432 1430 1429 1428 1427 1426 1425 1424 1423 1423 1422 1421 1421 1420 1420 1419 1418 1418 1418 1418 1417 1417 1416 1416 1416 1415 1415 1414 1413 1413 1412 1412 1411 1411 1411 1410 1410 1410 1410 1410 1410 1409
1431 1430 1429 1428 1427 1425 1424 1423 1423 1422 1421 1420 1420 1419 1419 1418 1417 1416 1416 1416 1415 1415 1414 1413 1413 1412 1412 1411 1411 1410 1409 1409 1408 1408 1407 1407 1406 1406 1406 1405 1405 1405 1405
1430 1428 1427 1426 1425 1424 1423 1422 1421 1420 1420 1419 1418 1417 1417 1416 1415 1414 1413 1413 1412 1412 1411 1410 1410 1409 1409 1408 1407 1407 1406 1405 1405 1404 1404 1403 1403 1402 1402 1401 1401 1401 1400
1428 1427 1426 1425 1424 1422 1421 1420 1419 1419 1418 1417 1416 1415 1414 1413 1412 1412 1411 1410 1409 1409 1408 1407 1406 1406 1405 1404 1404 1403 1403 1402 1402 1401 1400 1400 1399 1399 1398 1398 1397 1397 1397
1427 1425 1424 1423 1422 1421 1420 1419 1418 1417 1416 1415 1414 1413 1412 1411 1410 1409 1408 1407 1406 1405 1405 1404 1403 1402 1401 1401 1400 1399 1399 1398 1398 1397 1397 1396 1396 1395 1395 1394 1394 1394 1393
1426 1424 1423 1421 1420 1419 1418 1417 1416 1415 1413 1412 1411 1410 1409 1408 1407 1406 1405 1404 1403 1402 1401 1400 1399 1398 1398 1397 1396 1396 1395 1395 1394 1394 1393 1393 1392 1392 1391 1391 1390 1390 1390
1424 1422 1421 1420 1418 1417 1416 1415 1414 1413 1411 1410 1409 1408 1406 1405 1404 1403 1401 1400 1399 1398 1397 1396 1396 1395 1394 1393 1393 1392 1391 1391 1390 1390 1389 1389 1388 1388 1388 1387 1387 1386 1386